Showing default

ESSAIM-1, 28494

Orbit data source: Space-Track

ESSAIM-1, 28494 is a French payload satellite in SSO that was launched on Sat, 18 Dec 2004 UTC via an ARIANE 5G+ launch vehicle from the French Guiana (FRGUI). Payload-class satellites include a variety of spacecraft equipped with specific instruments for various scientific and technological missions. These include communications satellites like Starlink; space stations such as the ISS; scientific satellites like the Hubble; Earth observation satellites from companies like Planet Labs, Umbra, and HawkEye 360; GPS; miniature CubeSats for education and research; and military/defense satellites.

Loading next visibility...
Identifier
28494, 2004-049C
Orbit
SSO
Country
Flag of FRFR
Related business
Manufacturer
EADS/Bremen
Mission
Defense Sigint
Bus & Motor
MYRIADE, Unknown motor
Mass
120 kg wet, 115 kg dry
Launch date (UTC)
2004-12-18 (22 years ago)
Launch vehicle
ARIANE 5G+
Launch site
French Guiana (FRGUI)
Object type
Payload
Rocket body
Debris
Shape & HBR
Box + 1 Pan, 2.5 m
Radar Cross Section
0.607 m², Large (>1 m²)

Expand to show TLE details & history
Last TLE update: 2 days ago

TLE from 2 days ago
0 ESSAIM-1
1 28494U 04049C   26171.46115727  .00000750  00000-0  91898-4 0  9995
2 28494  98.3034  40.6804 0001625  76.8105 283.3290 14.86308621158773
Epoch: 2026-06-20T11:04Z
TLE epoch observation values (Epoch: 2026-06-20T11:04:03.988Z)
Latitude
-0.00004°
Longitude
-34.01166°
Altitude
612.237 km
Speed
7.553 km/s
True Right ascension
02h 42m 43s
True Declination
0° 00' 00"
Sunlit
Object was in daylight at epoch
Visualization orbit readout
Latitude
Unknown
Longitude
Unknown
Altitude
Unknown
Speed
Unknown
Apparent Right ascension
Unknown
Apparent Declination
Unknown
Sunlit
N/A
Visualization observer readout
Local Sidereal Time
23:08:33
Azimuth
Unknown
Elevation
Unknown
Doppler factor
Unknown
Orbital elements
Apogee altitude
607.667 km
Perigee altitude
605.397 km
Semi-major axis
6,984.669 km
Eccentricity
0.00016
Inclination
98.3034°
RAAN
40.6804°
Arg. of periapsis
76.8105°
True anomaly
283.31088°
Mean anomaly
283.329°
Eccentric anomaly
283.31994°
Mean motion
3.71813 °/min
Orbital period
96.82 mins
BSTAR
0.000091898
Loading maneuver chart data...
Computing Atmospheric mass density...
Loading historical data...
Loading historical data...
Loading historical data...
Loading historical data...
Loading historical data...
Loading historical data...
Loading historical data...

Documentation

Showing up to 5 results
|